Preview of NWS' New Version of Forecast
This preview is not operational and should not be used for support decisions.

Regional Weather Roundup (RWR)

Issued by National Weather Service (NWS)

                            
000
ASUS46 KSEW 180010
RWRWA 

WASHINGTON REGIONAL WEATHER ROUNDUP
NATIONAL WEATHER SERVICE SEATTLE WA
500 PM PDT MON JUN 17 2019

NOTE:"FAIR" INDICATES FEW OR NO CLOUDS BELOW 12,000 FEET WITH NO 
SIGNIFICANT WEATHER AND/OR OBSTRUCTIONS TO VISIBILITY.

WAZ507-509-555>559-180100-
SEATTLE, TACOMA, EVERETT, AND VICINITY
  
CITY           SKY/WX    TMP DP  RH WIND       PRES   REMARKS
EVERETT        FAIR      71  55  56 VRB6      30.15S                  
6HR MIN TEMP:  62; 6HR MAX TEMP:  72;                                

BOEING FIELD   PTSUNNY   75  52  44 SW7       30.12S                  
6HR MIN TEMP:  62; 6HR MAX TEMP:  76;                                

RENTON         FAIR      75  54  47 SW8       30.12S                  
6HR MIN TEMP:  61; 6HR MAX TEMP:  76;                                

SEATAC AIRPORT PTSUNNY   73  52  47 SW6       30.14S                  
6HR MIN TEMP:  60; 6HR MAX TEMP:  74;                                

JBLM-MCCHORD   FAIR      75  62  65 W5        30.13F                  
6HR MIN TEMP:  60; 6HR MAX TEMP:  75;                                

PUYALLUP       FAIR      77  55  47 CALM      30.14S                  
BREMERTON      CLOUDY    75  56  51 SW7       30.13S                  
6HR MIN TEMP:  59; 6HR MAX TEMP:  75;                                

JBLM-FT LEWIS  FAIR      75  64  67 W8        30.12F                  
6HR MIN TEMP:  60; 6HR MAX TEMP:  75;                                

TACOMA NARROWS FAIR      70  55  59 VRB6      30.13F                  
6HR MIN TEMP:  57; 6HR MAX TEMP:  71;                                

$$
 
WAZ001-503-506-510-514-515-180100-
NORTH INTERIOR
  
CITY           SKY/WX    TMP DP  RH WIND       PRES   REMARKS
BELLINGHAM     FAIR      65  54  67 S13G23    30.09F                  
6HR MIN TEMP:  60; 6HR MAX TEMP:  67;                                

FRIDAY HARBOR  FAIR      67  54  63 E6        30.10F                  
6HR MIN TEMP:  60; 6HR MAX TEMP:  67;                                

EASTSOUND      FAIR      66  55  68 S14       30.07F                  
PORT ANGELES   FAIR      63  55  75 W14G29    30.15S                  
6HR MIN TEMP:  59; 6HR MAX TEMP:  67;                                

EDIZ HOOK      FAIR      60  54  80 W20G29    30.16R                  
6HR MIN TEMP:  57; 6HR MAX TEMP:  62;                                

PORT TOWNSEND  FAIR      70  57  64 NW8       30.12S                  
NAS WHIDBEY    PTSUNNY   65  53  65 SW15G23   30.16S                  
6HR MIN TEMP:  62; 6HR MAX TEMP:  70;                                

ARLINGTON      FAIR      73  56  54 NW13      30.14S                  
6HR MIN TEMP:  66; 6HR MAX TEMP:  74;                                

BURLINGTON     SUNNY     73  57  56 SW8G15    30.12S                  
$$
 
WAZ020-022-039-040-504-511-512-180100-
SOUTHWEST INTERIOR
  
CITY           SKY/WX    TMP DP  RH WIND       PRES   REMARKS
SHELTON        FAIR      77  56  48 SW16      30.10F                  
6HR MIN TEMP:  60; 6HR MAX TEMP:  77;                                

OLYMPIA        FAIR      75  55  49 CALM      30.13F                  
6HR MIN TEMP:  58; 6HR MAX TEMP:  76;                                

CHEHALIS       FAIR      75  57  53 VRB7G15   30.14S                  
KELSO          FAIR      74  58  57 W13       30.14S                  
6HR MIN TEMP:  65; 6HR MAX TEMP:  75;                                

VANCOUVER      FAIR      80  55  42 VRB7      30.09F                  
6HR MIN TEMP:  63; 6HR MAX TEMP:  80;                                

SCAPPOOSE, OR  FAIR      80  57  45 N16       30.09S                  
6HR MIN TEMP:  65; 6HR MAX TEMP:  81;                                

PORTLAND, OR   FAIR      80  54  40 N8        30.10S                  
6HR MIN TEMP:  63; 6HR MAX TEMP:  81;                                

$$
 
WAZ021-516-517-180100-
WASHINGTON COAST
  
CITY           SKY/WX    TMP DP  RH WIND       PRES   REMARKS
FORKS          CLOUDY    62  56  80 W9        30.20S                  
6HR MIN TEMP:  60; 6HR MAX TEMP:  67;                                

HOQUIAM        CLOUDY    61  57  87 W14       30.20S                  
6HR MIN TEMP:  61; 6HR MAX TEMP:  64;                                

ASTORIA, OR    CLOUDY    62  55  77 NW8       30.21R                  
6HR MIN TEMP:  59; 6HR MAX TEMP:  65;                                

$$
 
WAZ019-023-024-040-567>569-180100-
CASCADE MOUNTAINS AND COLUMBIA GORGE
  
CITY           SKY/WX    TMP DP  RH WIND       PRES   REMARKS
STAMPEDE PASS  FAIR      64  50  60 VRB7G18   30.17S                  
6HR MIN TEMP:  61; 6HR MAX TEMP:  67;                                

TROUTDALE, OR  FAIR      79  55  43 VRB6      30.09F                  
6HR MIN TEMP:  61; 6HR MAX TEMP:  80;                                

HOOD RIVER, OR FAIR      81  52  36 SW3       30.02S                  
THE DALLES, OR FAIR      85  53  33 NW21G32   29.94S                  
6HR MIN TEMP:  74; 6HR MAX TEMP:  86;                                

$$

WAZ026-027-041>044-520-521-180100-
EAST SLOPES
  
CITY           SKY/WX    TMP DP  RH WIND       PRES   REMARKS
OMAK           FAIR      92  42  17 S13       29.86F                  
6HR MIN TEMP:  82; 6HR MAX TEMP:  92;                                

WENATCHEE      FAIR      90  38  16 W13G21    29.89F                  
6HR MIN TEMP:  79; 6HR MAX TEMP:  91;                                

ELLENSBURG     FAIR      82  47  29 NW30G37   29.96S                  
6HR MIN TEMP:  77; 6HR MAX TEMP:  86;                                

YAKIMA         FAIR      91  37  15 NW15      29.91F                  
6HR MIN TEMP:  82; 6HR MAX TEMP:  92;                                

SUNNYSIDE ARPT FAIR      91  48  23 SW7       29.89                   
6HR MIN TEMP:  82; 6HR MAX TEMP:  92;                                

YAKIMA TC      FAIR      90  33  13 NW15G22   29.91F                  
6HR MIN TEMP:  78; 6HR MAX TEMP:  91;                                

$$

WAZ028-034-035-180100-
COLUMBIA BASIN
  
CITY           SKY/WX    TMP DP  RH WIND       PRES   REMARKS
EPHRATA        FAIR      90  43  19 SW9G18    29.89F                  
6HR MIN TEMP:  82; 6HR MAX TEMP:  91;                                

MOSES LAKE     FAIR      91  45  20 SW10      29.90F                  
6HR MIN TEMP:  86; 6HR MAX TEMP:  92;                                

PASCO          FAIR      93  49  22 SW8       29.88F HX  90           
6HR MIN TEMP:  81; 6HR MAX TEMP:  93;                                

RICHLAND ARPT  FAIR      94  37  13 SW7       29.87F HX  90           
6HR MIN TEMP:  83; 6HR MAX TEMP:  95;                                

HERMISTON, OR  FAIR      91  47  21 MISG      29.89F                  
6HR MIN TEMP:  81; 6HR MAX TEMP:  92;                                

$$

WAZ036>038-180100-
NORTHEAST WASHINGTON
  
CITY           SKY/WX    TMP DP  RH WIND       PRES   REMARKS
SPOKANE GEIGER FAIR      85  49  28 NW9       29.95F                  
6HR MIN TEMP:  72; 6HR MAX TEMP:  85;                                

SPOKANE FELTS  FAIR      85  51  31 W6        29.93F                  
6HR MIN TEMP:  76; 6HR MAX TEMP:  86;                                

FAIRCHILD AFB  FAIR      83  50  30 CALM      29.96F                  
6HR MIN TEMP:  72; 6HR MAX TEMP:  84;                                

COEURDALENE,ID FAIR      84  53  34 W9        29.95F                  
6HR MIN TEMP:  76; 6HR MAX TEMP:  84;                                

DEER PARK      FAIR      83  50  31 VRB6      29.95F                  
6HR MIN TEMP:  74; 6HR MAX TEMP:  83;                                

$$

WAZ029>033-180100-
SOUTHEAST WASHINGTON
  
CITY           SKY/WX    TMP DP  RH WIND       PRES   REMARKS
PULLMAN        FAIR      81  52  36 W8        29.99F                  
6HR MIN TEMP:  72; 6HR MAX TEMP:  82;                                

LEWISTON, ID   FAIR      89  50  26 N14       29.91F                  
6HR MIN TEMP:  78; 6HR MAX TEMP:  89;                                

WALLA WALLA    FAIR      87  48  25 VRB3      29.93F                  
6HR MIN TEMP:  77; 6HR MAX TEMP:  87;                                

PENDLETON, OR  FAIR      86  44  23 NW9       29.94F                  
6HR MIN TEMP:  78; 6HR MAX TEMP:  87;                                

$$